, MT

(GMT )
West Yellowstone

Weather History for KWYS - June, 2014

Change the Weather History Date:

Wednesday, June 18, 2014

  Actual Average Record
Temperature  
Mean Temperature 40 °F -  
Max Temperature 48 °F 70 °F 80 °F (2013)
Min Temperature 33 °F 35 °F 32 °F (2011)
Degree Days  
Heating Degree Days 24    
Moisture  
Dew Point 32 °F    
Average Humidity 77    
Maximum Humidity 93    
Minimum Humidity 50    
Precipitation  
Precipitation 0.01 in - - ()
Sea Level Pressure  
Sea Level Pressure 30.03 in    
Wind  
Wind Speed 9 mph (SW)    
Max Wind Speed 24 mph    
Max Gust Speed 39 mph    
Visibility 10 miles    
Events Rain , Snow    
Averages and records for this station are not official NWS values.
T = Trace of Precipitation, MM = Missing Value Source: NWS Daily Summary

Daily Weather History Graph

Daily Weather History Graph

Search for Another Location

Airport or City:

Trip Planner

Search our weather history database for the weather conditions in past years. The results will help you decide how hot, cold, wet, or windy it might be!

Date:

Astronomy

Jun. 18, 2014 Rise Set
Actual Time 5:38 AM MDT 9:12 PM MDT
Civil Twilight 5:01 AM MDT 9:49 PM MDT
Nautical Twilight 4:12 AM MDT 10:39 PM MDT
Astronomical Twilight 3:08 AM MDT 11:43 PM MDT
Moon 12:30 AM MDT (6/18) 12:20 PM MDT (6/18)
Length of Visible Light 16h 48m
Length of Day
15h 34m
Waning Gibbous, 62% of the Moon is Illuminated
Jun 18
Waning Gibbous
Jun 19
Last Quarter
Jun 27
New
Jul 5
First Quarter
Jul 12
Full

Hourly Weather History & Observations

Time (MDT) Temp. Windchill Dew Point Humidity Pressure Visibility Wind Dir Wind Speed Gust Speed Precip Events Conditions
12:10 AM 37.4 °F - 32.0 °F 81% 29.97 in 10.0 mi Calm Calm - N/A   Overcast
12:30 AM 37.4 °F - 33.8 °F 87% 29.98 in 10.0 mi Calm Calm - N/A   Overcast
12:50 AM 35.6 °F - 33.8 °F 93% 29.98 in 10.0 mi Calm Calm - N/A   Overcast
1:10 AM 37.4 °F 32.1 °F 32.0 °F 81% 29.99 in 10.0 mi SSW 6.9 mph - N/A   Overcast
1:30 AM 37.4 °F 33.8 °F 32.0 °F 81% 29.99 in 10.0 mi SSW 4.6 mph - N/A   Overcast
1:50 AM 35.6 °F 31.7 °F 32.0 °F 87% 29.98 in 10.0 mi SSW 4.6 mph - N/A   Overcast
2:10 AM 37.4 °F 32.1 °F 32.0 °F 81% 29.98 in 10.0 mi SSW 6.9 mph - N/A   Overcast
2:30 AM 37.4 °F 33.8 °F 32.0 °F 81% 29.98 in 10.0 mi SW 4.6 mph - N/A   Overcast
2:50 AM 35.6 °F 31.7 °F 32.0 °F 87% 29.98 in 10.0 mi SSW 4.6 mph - N/A   Overcast
3:10 AM 35.6 °F 30.7 °F 32.0 °F 87% 29.97 in 10.0 mi SSW 5.8 mph - N/A   Scattered Clouds
3:30 AM 35.6 °F 30.7 °F 32.0 °F 87% 29.97 in 10.0 mi SW 5.8 mph - N/A   Clear
3:50 AM 35.6 °F 32.8 °F 30.2 °F 81% 29.97 in 10.0 mi WSW 3.5 mph - N/A   Scattered Clouds
4:10 AM 35.6 °F 31.7 °F 30.2 °F 81% 29.97 in 10.0 mi SW 4.6 mph - N/A   Overcast
4:30 AM 35.6 °F 27.1 °F 30.2 °F 81% 29.97 in 10.0 mi SSW 12.7 mph 18.4 mph N/A   Mostly Cloudy
4:50 AM 35.6 °F 27.5 °F 28.4 °F 75% 29.98 in 10.0 mi SSW 11.5 mph 18.4 mph N/A   Mostly Cloudy
5:10 AM 33.8 °F 25.3 °F 28.4 °F 81% 29.98 in 10.0 mi SW 11.5 mph 19.6 mph N/A   Mostly Cloudy
5:30 AM 35.6 °F 26.6 °F 28.4 °F 75% 29.99 in 10.0 mi SW 13.8 mph 21.9 mph N/A   Mostly Cloudy
5:50 AM 33.8 °F 25.8 °F 28.4 °F 81% 29.99 in 10.0 mi SW 10.4 mph 21.9 mph N/A   Mostly Cloudy
6:10 AM 33.8 °F 25.3 °F 28.4 °F 81% 30.00 in 10.0 mi SW 11.5 mph 21.9 mph N/A   Overcast
6:30 AM 35.6 °F 25.5 °F 30.2 °F 81% 30.00 in 10.0 mi SSW 17.3 mph 25.3 mph N/A   Overcast
6:50 AM 35.6 °F 24.5 °F 30.2 °F 81% 30.00 in 10.0 mi SSW 20.7 mph 27.6 mph N/A   Mostly Cloudy
7:10 AM 35.6 °F 25.9 °F 30.2 °F 81% 30.00 in 10.0 mi SSW 16.1 mph 25.3 mph N/A   Partly Cloudy
7:30 AM 35.6 °F 25.9 °F 30.2 °F 81% 30.00 in 10.0 mi SSW 16.1 mph 27.6 mph N/A   Mostly Cloudy
7:50 AM 35.6 °F 27.5 °F 30.2 °F 81% 30.01 in 10.0 mi SW 11.5 mph 20.7 mph N/A   Overcast
8:10 AM 35.6 °F 28.6 °F 30.2 °F 81% 30.02 in 10.0 mi SSW 9.2 mph 19.6 mph N/A   Overcast
8:30 AM 33.8 °F 25.3 °F 32.0 °F 93% 30.02 in 10.0 mi SW 11.5 mph 18.4 mph N/A   Overcast
8:50 AM 33.8 °F 24.3 °F 32.0 °F 93% 30.02 in 3.0 mi SSW 13.8 mph 19.6 mph N/A Snow Light Snow
9:10 AM 35.6 °F 28.0 °F 32.0 °F 87% 30.02 in 10.0 mi SSW 10.4 mph - N/A   Mostly Cloudy
9:30 AM 35.6 °F 28.6 °F 32.0 °F 87% 30.03 in 10.0 mi SW 9.2 mph 21.9 mph N/A   Overcast
9:50 AM 35.6 °F 29.2 °F 32.0 °F 87% 30.03 in 10.0 mi WSW 8.1 mph 18.4 mph N/A   Overcast
10:10 AM 35.6 °F 27.5 °F 32.0 °F 87% 30.02 in 10.0 mi SW 11.5 mph 19.6 mph N/A   Overcast
10:30 AM 37.4 °F 29.8 °F 32.0 °F 81% 30.02 in 8.0 mi SSW 11.5 mph - N/A   Mostly Cloudy
10:50 AM 37.4 °F 29.8 °F 32.0 °F 81% 30.03 in 10.0 mi SSW 11.5 mph 16.1 mph N/A   Mostly Cloudy
11:10 AM 39.2 °F 30.8 °F 32.0 °F 75% 30.02 in 10.0 mi SW 15.0 mph 21.9 mph N/A   Mostly Cloudy
11:30 AM 39.2 °F 32.5 °F 32.0 °F 75% 30.02 in 10.0 mi SW 10.4 mph 19.6 mph N/A   Overcast
11:50 AM 39.2 °F 33.6 °F 32.0 °F 75% 30.02 in 10.0 mi WSW 8.1 mph 23.0 mph N/A   Overcast
12:10 PM 39.2 °F 32.0 °F 32.0 °F 75% 30.02 in 8.0 mi West 11.5 mph 18.4 mph N/A   Mostly Cloudy
12:30 PM 41.0 °F 35.8 °F 35.6 °F 81% 30.02 in 10.0 mi WSW 8.1 mph - N/A Rain Light Rain
12:50 PM 44.6 °F 38.1 °F 30.2 °F 57% 30.01 in 10.0 mi SW 13.8 mph 25.3 mph N/A   Scattered Clouds
1:10 PM 44.6 °F 38.1 °F 28.4 °F 53% 30.01 in 10.0 mi WSW 13.8 mph 24.2 mph N/A   Mostly Cloudy
1:30 PM 41.0 °F 31.1 °F 33.8 °F 76% 30.01 in 10.0 mi SSW 23.0 mph 31.1 mph N/A   Overcast
1:50 PM 39.2 °F 30.5 °F 33.8 °F 81% 30.02 in 10.0 mi SSW 16.1 mph 25.3 mph N/A   Overcast
2:10 PM 41.0 °F 31.4 °F 35.6 °F 81% 30.02 in 6.0 mi SSW 21.9 mph 29.9 mph N/A Rain Light Rain
2:30 PM 41.0 °F 32.2 °F 37.4 °F 87% 30.02 in 10.0 mi SSW 18.4 mph 25.3 mph 0.01 in   Partly Cloudy
2:50 PM 44.6 °F 36.9 °F 35.6 °F 71% 30.02 in 10.0 mi SSW 18.4 mph 27.6 mph 0.01 in   Partly Cloudy
3:10 PM 44.6 °F 39.2 °F 32.0 °F 61% 30.02 in 10.0 mi SW 10.4 mph 24.2 mph N/A   Mostly Cloudy
3:50 PM 48.2 °F - 30.2 °F 50% 30.02 in 10.0 mi SSW 16.1 mph 29.9 mph N/A   Scattered Clouds
4:10 PM 46.4 °F 38.7 °F 32.0 °F 57% 30.02 in 10.0 mi SW 20.7 mph 26.5 mph N/A   Partly Cloudy
4:30 PM 46.4 °F 40.1 °F 32.0 °F 57% 30.04 in 9.0 mi SW 15.0 mph 36.8 mph N/A   Scattered Clouds
4:50 PM 44.6 °F 37.4 °F 35.6 °F 71% 30.05 in 8.0 mi SW 16.1 mph 28.8 mph N/A   Mostly Cloudy
5:10 PM 44.6 °F 36.1 °F 33.8 °F 66% 30.06 in 10.0 mi SSW 21.9 mph 33.4 mph N/A   Mostly Cloudy
5:30 PM 44.6 °F 36.4 °F 32.0 °F 61% 30.06 in 10.0 mi SW 20.7 mph 36.8 mph N/A   Mostly Cloudy
5:50 PM 44.6 °F 36.9 °F 32.0 °F 61% 30.05 in 10.0 mi SW 18.4 mph 31.1 mph N/A   Partly Cloudy
6:10 PM 44.6 °F 35.9 °F 32.0 °F 61% 30.05 in 10.0 mi SSW 23.0 mph 35.7 mph N/A   Clear
6:30 PM 42.8 °F 33.3 °F 32.0 °F 66% 30.06 in 10.0 mi SW 24.2 mph 39.1 mph N/A   Partly Cloudy
6:50 PM 42.8 °F 34.3 °F 32.0 °F 66% 30.06 in 10.0 mi SSW 19.6 mph 28.8 mph N/A   Partly Cloudy
7:10 PM 41.0 °F 32.5 °F 32.0 °F 70% 30.07 in 10.0 mi SSW 17.3 mph 28.8 mph N/A   Clear
7:30 PM 41.0 °F 32.2 °F 32.0 °F 70% 30.09 in 10.0 mi SSW 18.4 mph 24.2 mph N/A   Partly Cloudy
7:50 PM 41.0 °F 33.5 °F 32.0 °F 70% 30.10 in 10.0 mi SW 13.8 mph 21.9 mph N/A   Partly Cloudy
8:10 PM 41.0 °F 34.7 °F 32.0 °F 70% 30.10 in 10.0 mi SSW 10.4 mph 20.7 mph N/A   Mostly Cloudy
8:30 PM 41.0 °F 32.8 °F 32.0 °F 70% 30.10 in 10.0 mi SSW 16.1 mph 20.7 mph N/A   Mostly Cloudy
8:50 PM 39.2 °F 31.2 °F 32.0 °F 75% 30.10 in 10.0 mi SSW 13.8 mph 19.6 mph N/A   Mostly Cloudy
9:10 PM 39.2 °F 30.8 °F 32.0 °F 75% 30.09 in 10.0 mi SSW 15.0 mph 23.0 mph N/A   Partly Cloudy
9:30 PM 39.2 °F 33.0 °F 32.0 °F 75% 30.10 in 10.0 mi SSW 9.2 mph - N/A   Scattered Clouds
9:50 PM 39.2 °F 30.8 °F 32.0 °F 75% 30.10 in 10.0 mi SSW 15.0 mph 20.7 mph N/A   Scattered Clouds
10:10 PM 39.2 °F 33.0 °F 33.8 °F 81% 30.11 in 10.0 mi SSW 9.2 mph - N/A   Mostly Cloudy
10:30 PM 39.2 °F 33.0 °F 33.8 °F 81% 30.11 in 10.0 mi SSW 9.2 mph - N/A   Overcast
10:50 PM 39.2 °F 33.6 °F 33.8 °F 81% 30.11 in 10.0 mi South 8.1 mph - N/A   Overcast
11:10 PM 37.4 °F 33.8 °F 35.6 °F 93% 30.11 in 9.0 mi WSW 4.6 mph - N/A   Overcast
11:30 PM 37.4 °F - 35.6 °F 93% 30.11 in 10.0 mi Calm Calm - N/A   Overcast
11:50 PM 37.4 °F 31.4 °F 35.6 °F 93% 30.11 in 10.0 mi SW 8.1 mph - N/A   Overcast